Volver al catálogo

CZ-2D DEB

ActivoSSO
NORAD 38302·DEBRIS·🇨🇳 China

Lanzado Jun 15, 2010 desde Jiuquan Satellite Launch Center

Loading…

Próximos Pases (próximas 24 horas)

TLE

ActualizadoSource: Space-Track

Época: Sep 14, 2026, 02:01 UTC

1 38302U 10027G   26257.08429028  .00032483  00000-0  10198-2 0  9992
2 38302  97.4622 295.7063 0051517 308.9380  50.7275 15.31631702860144

Sigue CZ-2D DEB en tiempo real con AllMySat

Download on the App Store